Home > Weather > Bamberg > Past weeks

Flag for Germany Weather for the Past 2 Weeks in Bamberg, Bavaria, Germany

Now
36 °F

Passing clouds.


Feels Like: 28 °F
Forecast: 30 / 40 °F
Wind: 10 mph from West

Location: Nuernberg

Current Time: Feb 11, 2016 at 6:07:30 AM

Latest Report: Feb 11, 2016 at 5:20 AM


Visibility: N/A

Pressure: 29.65 "Hg

Humidity: 93%

Dew point: 34 °F

Location of BambergLocation

Historic Weather in Bamberg — Graph

°F

Bamberg Temperature Yesterday

Maximum temperature yesterday: 41 °F (at 12:20 AM)
Minimum temperature yesterday: 34 °F (at 5:50 AM)
Average temperature yesterday: 37 °F

High & Low Weather Summary for the Past Weeks

 TemperatureHumidityPressure
High57 °F (Jan 27, 2:20 PM)100% (Jan 29, 1:20 AM)30.42 "Hg (Jan 29, 1:20 AM)
Low30 °F (Feb 7, 5:20 AM)50% (Feb 7, 1:20 PM)29.15 "Hg (Feb 9, 6:50 PM)
Average43 °F81%29.97 "Hg
* Reported Jan 27 4:20 AM — Feb 11 4:20 AM, Bamberg, Weather by CustomWeather, © 2016

Note: Actual official high and low records may vary slightly from our data, if they occured in-between our weather recording intervals... More about our weather records

Advertising

Bamberg Weather History for the Previous 24 Hours

 ConditionsComfort  
Time TempWeatherWind HumidityBarometerVisibility
4:20 AM
Thu, Feb 11
36 °FPassing clouds.13 mph93%29.65 "HgN/A
3:20 AM36 °FLight rain. Passing clouds.13 mph93%29.62 "HgN/A
2:20 AM37 °FLight rain. Partly cloudy.15 mph87%29.59 "HgN/A
1:50 AM37 °FLight rain. Partly cloudy.16 mph81%29.59 "HgN/A
1:20 AM37 °FLight rain. Passing clouds.15 mph81%29.59 "HgN/A
12:50 AM36 °FLight rain. Passing clouds.16 mph93%29.59 "HgN/A
12:20 AM36 °FPassing clouds.14 mph93%29.56 "HgN/A
11:50 PM
Wed, Feb 10
36 °FPartly cloudy.14 mph93%29.56 "HgN/A
10:50 PM36 °FLight rain. Partly cloudy.16 mph93%29.56 "HgN/A
10:20 PM37 °FChilly.16 mph87%29.53 "HgN/A
9:50 PM37 °FLight rain. Passing clouds.15 mph87%29.53 "HgN/A
9:20 PM37 °FLight rain. Passing clouds.14 mph87%29.53 "HgN/A
8:50 PM37 °FLight rain. Passing clouds.15 mph87%29.53 "HgN/A
8:20 PM37 °FLight rain. Passing clouds.16 mph87%29.50 "HgN/A
7:50 PM37 °FLight rain. Passing clouds.17 mph87%29.50 "HgN/A
7:20 PM37 °FLight rain. Passing clouds.18 mph87%29.50 "HgN/A
6:50 PM36 °FLight rain. Passing clouds.16 mph93%29.47 "HgN/A
6:20 PM36 °FLight rain. Partly cloudy.13 mph93%29.47 "HgN/A
5:50 PM36 °FLight rain. Partly cloudy.10 mph93%29.47 "HgN/A
5:20 PM36 °FLight rain. Broken clouds.9 mph93%29.47 "Hg4 mi
4:50 PM36 °FSprinkles. Broken clouds.9 mph93%29.45 "Hg3 mi
4:20 PM36 °FRain showers. Broken clouds.15 mph87%29.45 "Hg3 mi
3:50 PM37 °FSprinkles. Partly sunny.17 mph87%29.45 "Hg6 mi
3:20 PM39 °FSprinkles. Partly sunny.16 mph75%29.42 "HgN/A
2:50 PM39 °FBroken clouds.16 mph75%29.42 "HgN/A
2:20 PM39 °FBroken clouds.18 mph75%29.42 "HgN/A
1:50 PM39 °FSprinkles. Partly sunny.18 mph70%29.42 "HgN/A
1:20 PM39 °FPartly sunny.20 mph70%29.42 "HgN/A
12:50 PM39 °FPartly sunny.20 mph70%29.42 "HgN/A
12:20 PM39 °FPartly sunny.20 mph70%29.45 "HgN/A
11:50 AM39 °FScattered clouds.17 mph70%29.45 "HgN/A
11:20 AM37 °FPartly sunny.18 mph75%29.45 "HgN/A
10:50 AM37 °FPartly sunny.15 mph75%29.45 "HgN/A
10:20 AM37 °FPartly sunny.22 mph75%29.45 "HgN/A
9:50 AM37 °FPartly sunny.12 mph81%29.42 "HgN/A
9:20 AM36 °FBroken clouds.12 mph87%29.42 "HgN/A
8:50 AM36 °FPartly sunny.10 mph87%29.42 "HgN/A
8:20 AM36 °FBroken clouds.10 mph87%29.42 "HgN/A
7:50 AM36 °FScattered clouds.6 mph87%29.39 "HgN/A
7:20 AM36 °FPartly cloudy.5 mph87%29.39 "HgN/A
6:50 AM36 °FPassing clouds.9 mph87%29.39 "HgN/A
6:20 AM36 °FPartly cloudy.8 mph87%29.39 "HgN/A
Weather by CustomWeather, © 2016

See weather overviewHow to use our weather pages